Time,TemperatureF,DewpointF,PressureIn,WindDirection,WindDirectionDegrees,WindSpeedMPH,WindSpeedGustMPH,Humidity,HourlyPrecipIn,Conditions,Clouds,dailyrainin,SoftwareType,DateUTC
2013-02-04 00:04:00,24.7,21.6,29.77,East,83,0.0,0.0,88,0.00,,,0.00,WUHU216DAVISWMX,2013-02-04 05:04:00,
2013-02-04 00:09:00,24.6,21.5,29.77,East,83,0.0,0.0,88,0.00,,,0.00,WUHU216DAVISWMX,2013-02-04 05:09:00,
2013-02-04 00:14:00,24.4,21.0,29.77,East,84,0.0,0.0,87,0.00,,,0.00,WUHU216DAVISWMX,2013-02-04 05:14:00,
2013-02-04 00:19:00,23.9,20.6,29.77,East,83,0.0,0.0,87,0.00,,,0.00,WUHU216DAVISWMX,2013-02-04 05:19:00,
2013-02-04 00:24:00,23.8,20.2,29.77,East,83,0.0,0.0,86,0.00,,,0.00,WUHU216DAVISWMX,2013-02-04 05:24:00,
2013-02-04 00:29:00,23.4,20.1,29.77,East,83,0.0,0.0,87,0.00,,,0.00,WUHU216DAVISWMX,2013-02-04 05:29:00,
2013-02-04 00:34:00,23.2,19.9,29.77,East,84,0.0,0.0,87,0.00,,,0.00,WUHU216DAVISWMX,2013-02-04 05:34:00,
2013-02-04 00:39:00,23.1,19.8,29.77,East,83,0.0,0.0,87,0.00,,,0.00,WUHU216DAVISWMX,2013-02-04 05:39:00,
2013-02-04 00:44:00,22.9,19.6,29.77,East,84,0.0,0.0,87,0.00,,,0.00,WUHU216DAVISWMX,2013-02-04 05:44:00,
2013-02-04 00:49:00,22.7,19.6,29.77,East,83,0.0,0.0,88,0.00,,,0.00,WUHU216DAVISWMX,2013-02-04 05:49:00,
2013-02-04 00:54:00,22.7,19.6,29.77,East,83,0.0,0.0,88,0.00,,,0.00,WUHU216DAVISWMX,2013-02-04 05:54:00,
2013-02-04 00:59:00,22.8,19.7,29.77,East,83,0.0,0.0,88,0.00,,,0.00,WUHU216DAVISWMX,2013-02-04 05:59:00,
2013-02-04 01:04:00,22.7,19.4,29.77,East,83,0.0,0.0,87,0.00,,,0.00,WUHU216DAVISWMX,2013-02-04 06:04:00,
2013-02-04 01:09:00,22.6,19.3,29.77,East,83,0.0,0.0,87,0.00,,,0.00,WUHU216DAVISWMX,2013-02-04 06:09:00,
2013-02-04 01:14:00,22.5,19.2,29.77,East,84,0.0,0.0,87,0.00,,,0.00,WUHU216DAVISWMX,2013-02-04 06:14:00,
2013-02-04 01:19:00,22.3,19.0,29.77,East,83,0.0,0.0,87,0.00,,,0.00,WUHU216DAVISWMX,2013-02-04 06:19:00,
2013-02-04 01:24:00,22.2,18.6,29.77,East,83,0.0,0.0,86,0.00,,,0.00,WUHU216DAVISWMX,2013-02-04 06:24:00,
2013-02-04 01:29:00,22.0,18.7,29.77,East,83,0.0,0.0,87,0.00,,,0.00,WUHU216DAVISWMX,2013-02-04 06:29:00,
2013-02-04 01:34:00,22.1,18.8,29.78,East,83,0.0,0.0,87,0.00,,,0.00,WUHU216DAVISWMX,2013-02-04 06:34:00,
2013-02-04 01:39:00,21.9,18.6,29.78,East,83,0.0,0.0,87,0.00,,,0.00,WUHU216DAVISWMX,2013-02-04 06:39:00,
2013-02-04 01:44:00,21.9,18.6,29.78,East,83,0.0,0.0,87,0.00,,,0.00,WUHU216DAVISWMX,2013-02-04 06:44:00,
2013-02-04 01:49:00,22.1,18.8,29.78,East,83,0.0,0.0,87,0.00,,,0.00,WUHU216DAVISWMX,2013-02-04 06:49:00,
2013-02-04 01:54:00,22.1,18.5,29.78,East,83,0.0,0.0,86,0.00,,,0.00,WUHU216DAVISWMX,2013-02-04 06:54:00,
2013-02-04 01:59:00,22.0,18.4,29.78,East,83,0.0,0.0,86,0.00,,,0.00,WUHU216DAVISWMX,2013-02-04 06:59:00,
2013-02-04 02:04:00,21.9,18.3,29.78,East,83,0.0,0.0,86,0.00,,,0.00,WUHU216DAVISWMX,2013-02-04 07:04:00,
2013-02-04 02:09:00,21.8,18.2,29.78,East,83,0.0,0.0,86,0.00,,,0.00,WUHU216DAVISWMX,2013-02-04 07:09:00,
2013-02-04 02:14:00,21.7,18.1,29.78,East,83,0.0,0.0,86,0.00,,,0.00,WUHU216DAVISWMX,2013-02-04 07:14:00,
2013-02-04 02:19:00,21.7,18.1,29.78,East,83,0.0,0.0,86,0.00,,,0.00,WUHU216DAVISWMX,2013-02-04 07:19:00,
2013-02-04 02:24:00,21.8,18.0,29.78,East,83,0.0,0.0,85,0.00,,,0.00,WUHU216DAVISWMX,2013-02-04 07:24:00,
2013-02-04 02:29:00,21.8,18.0,29.78,East,84,0.0,0.0,85,0.00,,,0.00,WUHU216DAVISWMX,2013-02-04 07:29:00,
2013-02-04 02:34:00,21.8,18.0,29.77,East,83,0.0,0.0,85,0.00,,,0.00,WUHU216DAVISWMX,2013-02-04 07:34:00,
2013-02-04 02:39:00,21.6,17.5,29.78,East,83,0.0,0.0,84,0.00,,,0.00,WUHU216DAVISWMX,2013-02-04 07:39:00,
2013-02-04 02:44:00,21.6,17.5,29.77,East,84,0.0,0.0,84,0.00,,,0.00,WUHU216DAVISWMX,2013-02-04 07:44:00,
2013-02-04 02:49:00,21.5,17.4,29.77,East,83,0.0,0.0,84,0.00,,,0.00,WUHU216DAVISWMX,2013-02-04 07:49:00,
2013-02-04 02:54:00,21.4,17.0,29.77,East,83,0.0,0.0,83,0.00,,,0.00,WUHU216DAVISWMX,2013-02-04 07:54:00,
2013-02-04 02:59:00,21.3,16.9,29.77,East,83,0.0,0.0,83,0.00,,,0.00,WUHU216DAVISWMX,2013-02-04 07:59:00,
2013-02-04 03:04:00,21.1,16.5,29.77,East,83,0.0,0.0,82,0.00,,,0.00,WUHU216DAVISWMX,2013-02-04 08:04:00,
2013-02-04 03:09:00,21.2,16.6,29.77,East,83,0.0,0.0,82,0.00,,,0.00,WUHU216DAVISWMX,2013-02-04 08:09:00,
2013-02-04 03:14:00,21.0,16.4,29.77,East,83,0.0,0.0,82,0.00,,,0.00,WUHU216DAVISWMX,2013-02-04 08:14:00,
2013-02-04 03:20:00,21.0,16.4,29.77,East,83,0.0,0.0,82,0.00,,,0.00,WUHU216DAVISWMX,2013-02-04 08:20:00,
2013-02-04 03:25:00,20.8,16.2,29.77,East,82,0.0,2.0,82,0.00,,,0.00,WUHU216DAVISWMX,2013-02-04 08:25:00,
2013-02-04 03:30:00,20.7,15.8,29.77,East,82,0.0,2.0,81,0.00,,,0.00,WUHU216DAVISWMX,2013-02-04 08:30:00,
2013-02-04 03:35:00,20.7,15.8,29.77,East,81,1.0,2.0,81,0.00,,,0.00,WUHU216DAVISWMX,2013-02-04 08:35:00,
2013-02-04 03:40:00,20.8,15.6,29.77,North,357,2.0,3.0,80,0.00,,,0.00,WUHU216DAVISWMX,2013-02-04 08:40:00,
2013-02-04 03:45:00,20.8,15.6,29.77,North,357,1.0,3.0,80,0.00,,,0.00,WUHU216DAVISWMX,2013-02-04 08:45:00,
2013-02-04 03:50:00,20.7,15.5,29.77,NW,304,1.0,4.0,80,0.00,,,0.00,WUHU216DAVISWMX,2013-02-04 08:50:00,
2013-02-04 03:55:00,21.0,15.8,29.77,NW,309,4.0,4.0,80,0.00,,,0.00,WUHU216DAVISWMX,2013-02-04 08:55:00,
2013-02-04 04:00:00,21.1,15.9,29.78,NW,309,2.0,4.0,80,0.00,,,0.00,WUHU216DAVISWMX,2013-02-04 09:00:00,
2013-02-04 04:05:00,21.2,16.0,29.78,NW,309,1.0,3.0,80,0.00,,,0.00,WUHU216DAVISWMX,2013-02-04 09:05:00,
2013-02-04 04:10:00,21.4,15.9,29.78,West,276,2.0,3.0,79,0.00,,,0.00,WUHU216DAVISWMX,2013-02-04 09:10:00,
2013-02-04 04:15:00,21.3,15.8,29.78,NNW,327,0.0,4.0,79,0.00,,,0.00,WUHU216DAVISWMX,2013-02-04 09:15:00,
2013-02-04 04:20:00,21.4,15.9,29.78,NNW,327,0.0,4.0,79,0.00,,,0.00,WUHU216DAVISWMX,2013-02-04 09:20:00,
2013-02-04 04:25:00,21.5,16.0,29.78,NNW,327,0.0,3.0,79,0.00,,,0.00,WUHU216DAVISWMX,2013-02-04 09:25:00,
2013-02-04 04:30:00,21.6,16.1,29.78,NNW,327,1.0,3.0,79,0.00,,,0.00,WUHU216DAVISWMX,2013-02-04 09:30:00,
2013-02-04 04:35:00,21.6,15.8,29.78,West,274,1.0,5.0,78,0.00,,,0.00,WUHU216DAVISWMX,2013-02-04 09:35:00,
2013-02-04 04:40:00,21.7,15.9,29.79,West,274,2.0,5.0,78,0.00,,,0.00,WUHU216DAVISWMX,2013-02-04 09:40:00,
2013-02-04 04:45:00,21.7,15.9,29.79,North,0,2.0,4.0,78,0.00,,,0.00,WUHU216DAVISWMX,2013-02-04 09:45:00,
2013-02-04 04:50:00,21.5,15.7,29.79,NNW,328,2.0,4.0,78,0.00,,,0.00,WUHU216DAVISWMX,2013-02-04 09:50:00,
2013-02-04 04:55:00,21.5,15.7,29.79,NNW,328,1.0,3.0,78,0.00,,,0.00,WUHU216DAVISWMX,2013-02-04 09:55:00,
2013-02-04 05:00:00,21.5,15.7,29.79,NNW,343,2.0,3.0,78,0.00,,,0.00,WUHU216DAVISWMX,2013-02-04 10:00:00,
2013-02-04 05:05:00,21.4,15.6,29.79,NNW,332,0.0,3.0,78,0.00,,,0.00,WUHU216DAVISWMX,2013-02-04 10:05:00,
2013-02-04 05:10:00,21.3,15.5,29.80,WNW,285,0.0,4.0,78,0.00,,,0.00,WUHU216DAVISWMX,2013-02-04 10:10:00,
2013-02-04 05:15:00,21.2,15.4,29.80,WNW,285,0.0,4.0,78,0.00,,,0.00,WUHU216DAVISWMX,2013-02-04 10:15:00,
2013-02-04 05:20:00,21.2,15.4,29.80,WNW,285,1.0,2.0,78,0.00,,,0.00,WUHU216DAVISWMX,2013-02-04 10:20:00,
2013-02-04 05:25:00,21.1,15.3,29.80,NW,313,4.0,4.0,78,0.00,,,0.00,WUHU216DAVISWMX,2013-02-04 10:25:00,
2013-02-04 05:30:00,21.1,15.6,29.80,NW,314,0.0,4.0,79,0.00,,,0.00,WUHU216DAVISWMX,2013-02-04 10:30:00,
2013-02-04 05:35:00,21.0,15.2,29.80,NNW,332,2.0,3.0,78,0.00,,,0.00,WUHU216DAVISWMX,2013-02-04 10:35:00,
2013-02-04 05:40:00,21.0,15.2,29.80,NW,323,2.0,3.0,78,0.00,,,0.00,WUHU216DAVISWMX,2013-02-04 10:40:00,
2013-02-04 05:45:00,21.0,15.5,29.81,NW,323,1.0,3.0,79,0.00,,,0.00,WUHU216DAVISWMX,2013-02-04 10:45:00,
2013-02-04 05:50:00,20.9,15.1,29.81,NW,322,2.0,2.0,78,0.00,,,0.00,WUHU216DAVISWMX,2013-02-04 10:50:00,
2013-02-04 05:55:00,20.8,15.3,29.81,NW,323,1.0,3.0,79,0.00,,,0.00,WUHU216DAVISWMX,2013-02-04 10:55:00,
2013-02-04 06:00:00,20.8,15.3,29.82,NW,323,2.0,3.0,79,0.00,,,0.00,WUHU216DAVISWMX,2013-02-04 11:00:00,
2013-02-04 06:05:00,20.6,15.1,29.81,NW,323,1.0,3.0,79,0.00,,,0.00,WUHU216DAVISWMX,2013-02-04 11:05:00,
2013-02-04 06:10:00,20.7,15.2,29.82,NW,323,0.0,3.0,79,0.00,,,0.00,WUHU216DAVISWMX,2013-02-04 11:10:00,
2013-02-04 06:15:00,20.7,15.2,29.82,NW,322,1.0,3.0,79,0.00,,,0.00,WUHU216DAVISWMX,2013-02-04 11:15:00,
2013-02-04 06:20:00,20.6,15.1,29.82,NW,323,0.0,3.0,79,0.00,,,0.00,WUHU216DAVISWMX,2013-02-04 11:20:00,
2013-02-04 06:25:00,20.6,15.1,29.82,NW,323,0.0,3.0,79,0.00,,,0.00,WUHU216DAVISWMX,2013-02-04 11:25:00,
2013-02-04 06:30:00,20.4,14.9,29.82,NW,323,1.0,3.0,79,0.00,,,0.00,WUHU216DAVISWMX,2013-02-04 11:30:00,
2013-02-04 06:35:00,20.2,14.7,29.83,NW,323,1.0,3.0,79,0.00,,,0.00,WUHU216DAVISWMX,2013-02-04 11:35:00,
2013-02-04 06:40:00,20.1,14.6,29.83,NW,323,1.0,2.0,79,0.00,,,0.00,WUHU216DAVISWMX,2013-02-04 11:40:00,
2013-02-04 06:45:00,20.0,14.5,29.83,NW,323,0.0,3.0,79,0.00,,,0.00,WUHU216DAVISWMX,2013-02-04 11:45:00,
2013-02-04 06:50:00,20.0,14.5,29.83,NW,323,0.0,3.0,79,0.00,,,0.00,WUHU216DAVISWMX,2013-02-04 11:50:00,
2013-02-04 06:55:00,19.9,14.7,29.83,NW,323,0.0,2.0,80,0.00,,,0.00,WUHU216DAVISWMX,2013-02-04 11:55:00,
2013-02-04 07:00:00,19.8,14.6,29.83,NW,323,0.0,0.0,80,0.00,,,0.00,WUHU216DAVISWMX,2013-02-04 12:00:00,
2013-02-04 07:05:00,19.7,14.5,29.83,NW,323,0.0,0.0,80,0.00,,,0.00,WUHU216DAVISWMX,2013-02-04 12:05:00,
2013-02-04 07:10:00,19.6,14.4,29.83,NW,322,0.0,0.0,80,0.00,,,0.00,WUHU216DAVISWMX,2013-02-04 12:10:00,
2013-02-04 07:15:00,19.6,14.7,29.83,NW,323,0.0,0.0,81,0.00,,,0.00,WUHU216DAVISWMX,2013-02-04 12:15:00,
2013-02-04 07:20:00,19.5,14.6,29.83,NW,323,0.0,1.0,81,0.00,,,0.00,WUHU216DAVISWMX,2013-02-04 12:20:00,
2013-02-04 07:25:00,19.5,14.6,29.82,NW,323,0.0,1.0,81,0.00,,,0.00,WUHU216DAVISWMX,2013-02-04 12:25:00,
2013-02-04 07:30:00,19.6,14.7,29.82,NW,323,0.0,1.0,81,0.00,,,0.00,WUHU216DAVISWMX,2013-02-04 12:30:00,
2013-02-04 07:35:00,19.5,14.6,29.83,WNW,297,2.0,4.0,81,0.00,,,0.00,WUHU216DAVISWMX,2013-02-04 12:35:00,
2013-02-04 07:40:00,19.9,15.0,29.82,NW,308,1.0,4.0,81,0.00,,,0.00,WUHU216DAVISWMX,2013-02-04 12:40:00,
2013-02-04 07:45:00,20.1,14.9,29.82,NW,310,2.0,3.0,80,0.00,,,0.00,WUHU216DAVISWMX,2013-02-04 12:45:00,
2013-02-04 07:50:00,20.4,14.9,29.82,WSW,253,4.0,7.0,79,0.00,,,0.00,WUHU216DAVISWMX,2013-02-04 12:50:00,
2013-02-04 07:55:00,20.7,14.9,29.82,WNW,302,3.0,7.0,78,0.00,,,0.00,WUHU216DAVISWMX,2013-02-04 12:55:00,
2013-02-04 08:00:00,21.0,15.2,29.82,West,262,3.0,5.0,78,0.00,,,0.00,WUHU216DAVISWMX,2013-02-04 13:00:00,
2013-02-04 08:05:00,21.3,15.2,29.82,NW,311,2.0,5.0,77,0.00,,,0.00,WUHU216DAVISWMX,2013-02-04 13:05:00,
2013-02-04 08:10:00,21.7,15.3,29.82,WNW,290,2.0,6.0,76,0.00,,,0.00,WUHU216DAVISWMX,2013-02-04 13:10:00,
2013-02-04 08:15:00,22.2,15.5,29.82,NNW,334,2.0,6.0,75,0.00,,,0.00,WUHU216DAVISWMX,2013-02-04 13:15:00,
2013-02-04 08:20:00,22.5,15.5,29.83,West,274,2.0,8.0,74,0.00,,,0.00,WUHU216DAVISWMX,2013-02-04 13:20:00,
2013-02-04 08:25:00,22.9,15.6,29.83,NW,304,3.0,8.0,73,0.00,,,0.00,WUHU216DAVISWMX,2013-02-04 13:25:00,
2013-02-04 08:30:00,23.2,15.9,29.83,NW,319,2.0,8.0,73,0.00,,,0.00,WUHU216DAVISWMX,2013-02-04 13:30:00,
2013-02-04 08:35:00,23.4,15.7,29.83,WNW,284,4.0,8.0,72,0.00,,,0.00,WUHU216DAVISWMX,2013-02-04 13:35:00,
2013-02-04 08:40:00,23.5,15.8,29.83,NW,305,3.0,5.0,72,0.00,,,0.00,WUHU216DAVISWMX,2013-02-04 13:40:00,
2013-02-04 08:45:00,23.8,16.1,29.83,WNW,302,3.0,5.0,72,0.00,,,0.00,WUHU216DAVISWMX,2013-02-04 13:45:00,
2013-02-04 08:50:00,24.0,16.0,29.82,NNW,341,2.0,6.0,71,0.00,,,0.00,WUHU216DAVISWMX,2013-02-04 13:50:00,
2013-02-04 08:55:00,23.9,15.9,29.82,WSW,255,1.0,7.0,71,0.00,,,0.00,WUHU216DAVISWMX,2013-02-04 13:55:00,
2013-02-04 09:00:00,23.9,15.3,29.82,NNW,332,3.0,9.0,69,0.00,,,0.00,WUHU216DAVISWMX,2013-02-04 14:00:00,
2013-02-04 09:05:00,23.6,15.6,29.82,NNW,335,3.0,9.0,71,0.00,,,0.00,WUHU216DAVISWMX,2013-02-04 14:05:00,
2013-02-04 09:10:00,23.5,15.2,29.82,NNW,327,2.0,5.0,70,0.00,,,0.00,WUHU216DAVISWMX,2013-02-04 14:10:00,
2013-02-04 09:15:00,23.6,14.6,29.82,NNW,338,1.0,10.0,68,0.00,,,0.00,WUHU216DAVISWMX,2013-02-04 14:15:00,
2013-02-04 09:20:00,23.7,15.4,29.82,NW,315,2.0,10.0,70,0.00,,,0.00,WUHU216DAVISWMX,2013-02-04 14:20:00,
2013-02-04 09:25:00,23.9,15.3,29.82,North,4,0.0,4.0,69,0.00,,,0.00,WUHU216DAVISWMX,2013-02-04 14:25:00,
2013-02-04 09:30:00,24.2,14.9,29.82,NNW,336,5.0,7.0,67,0.00,,,0.00,WUHU216DAVISWMX,2013-02-04 14:30:00,
2013-02-04 09:35:00,24.6,15.6,29.83,West,281,1.0,7.0,68,0.00,,,0.00,WUHU216DAVISWMX,2013-02-04 14:35:00,
2013-02-04 09:40:00,24.8,14.4,29.83,NNW,331,7.0,9.0,64,0.00,,,0.00,WUHU216DAVISWMX,2013-02-04 14:40:00,
2013-02-04 09:45:00,24.6,14.6,29.82,WNW,297,5.0,12.0,65,0.00,,,0.00,WUHU216DAVISWMX,2013-02-04 14:45:00,
2013-02-04 09:50:00,24.8,14.4,29.82,NW,307,5.0,12.0,64,0.00,,,0.00,WUHU216DAVISWMX,2013-02-04 14:50:00,
2013-02-04 09:55:00,24.7,13.6,29.82,NW,316,6.0,13.0,62,0.00,,,0.00,WUHU216DAVISWMX,2013-02-04 14:55:00,
2013-02-04 10:00:00,24.6,13.5,29.82,NW,319,1.0,13.0,62,0.00,,,0.00,WUHU216DAVISWMX,2013-02-04 15:00:00,
2013-02-04 10:05:00,24.8,14.0,29.82,NW,308,3.0,9.0,63,0.00,,,0.00,WUHU216DAVISWMX,2013-02-04 15:05:00,
2013-02-04 10:10:00,25.0,14.2,29.82,NW,306,5.0,8.0,63,0.00,,,0.00,WUHU216DAVISWMX,2013-02-04 15:10:00,
2013-02-04 10:15:00,25.2,14.4,29.82,West,277,1.0,8.0,63,0.00,,,0.00,WUHU216DAVISWMX,2013-02-04 15:15:00,
2013-02-04 10:20:00,25.2,13.7,29.82,NW,326,1.0,6.0,61,0.00,,,0.00,WUHU216DAVISWMX,2013-02-04 15:20:00,
2013-02-04 10:25:00,25.6,13.7,29.82,WNW,302,5.0,12.0,60,0.00,,,0.00,WUHU216DAVISWMX,2013-02-04 15:25:00,
2013-02-04 10:30:00,25.7,12.6,29.82,West,272,4.0,12.0,57,0.00,,,0.00,WUHU216DAVISWMX,2013-02-04 15:30:00,
2013-02-04 10:35:00,25.8,12.7,29.82,NW,324,1.0,11.0,57,0.00,,,0.00,WUHU216DAVISWMX,2013-02-04 15:35:00,
2013-02-04 10:40:00,25.9,13.2,29.82,NW,304,11.0,11.0,58,0.00,,,0.00,WUHU216DAVISWMX,2013-02-04 15:40:00,
2013-02-04 10:45:00,26.0,13.3,29.82,NNW,335,10.0,11.0,58,0.00,,,0.00,WUHU216DAVISWMX,2013-02-04 15:45:00,
2013-02-04 10:50:00,25.9,12.8,29.82,NNW,333,5.0,10.0,57,0.00,,,0.00,WUHU216DAVISWMX,2013-02-04 15:50:00,
2013-02-04 10:55:00,26.0,13.3,29.82,NW,323,3.0,8.0,58,0.00,,,0.00,WUHU216DAVISWMX,2013-02-04 15:55:00,
2013-02-04 11:00:00,26.2,13.0,29.82,NW,319,3.0,6.0,57,0.00,,,0.00,WUHU216DAVISWMX,2013-02-04 16:00:00,
2013-02-04 11:05:00,26.5,13.3,29.82,NNW,327,0.0,6.0,57,0.00,,,0.00,WUHU216DAVISWMX,2013-02-04 16:05:00,
2013-02-04 11:10:00,26.6,13.8,29.82,NW,325,5.0,6.0,58,0.00,,,0.00,WUHU216DAVISWMX,2013-02-04 16:10:00,
2013-02-04 11:15:00,26.6,13.4,29.82,WSW,256,5.0,6.0,57,0.00,,,0.00,WUHU216DAVISWMX,2013-02-04 16:15:00,
2013-02-04 11:20:00,26.6,13.0,29.82,NNW,327,6.0,7.0,56,0.00,,,0.00,WUHU216DAVISWMX,2013-02-04 16:20:00,
2013-02-04 11:25:00,26.8,13.2,29.81,WNW,300,3.0,7.0,56,0.00,,,0.00,WUHU216DAVISWMX,2013-02-04 16:25:00,
2013-02-04 11:30:00,26.8,12.8,29.81,WNW,296,5.0,8.0,55,0.00,,,0.00,WUHU216DAVISWMX,2013-02-04 16:30:00,
2013-02-04 11:35:00,27.0,13.8,29.81,West,268,5.0,9.0,57,0.00,,,0.00,WUHU216DAVISWMX,2013-02-04 16:35:00,
2013-02-04 11:40:00,27.0,13.0,29.82,NW,305,4.0,9.0,55,0.00,,,0.00,WUHU216DAVISWMX,2013-02-04 16:40:00,
2013-02-04 11:45:00,27.0,13.0,29.82,NW,315,2.0,9.0,55,0.00,,,0.00,WUHU216DAVISWMX,2013-02-04 16:45:00,
2013-02-04 11:50:00,27.0,13.0,29.81,WNW,300,6.0,8.0,55,0.00,,,0.00,WUHU216DAVISWMX,2013-02-04 16:50:00,
2013-02-04 11:55:00,27.0,13.0,29.82,NW,313,4.0,12.0,55,0.00,,,0.00,WUHU216DAVISWMX,2013-02-04 16:55:00,
2013-02-04 12:00:00,27.1,13.5,29.81,NW,321,1.0,12.0,56,0.00,,,0.00,WUHU216DAVISWMX,2013-02-04 17:00:00,
2013-02-04 12:05:00,27.4,13.3,29.81,NNW,342,7.0,8.0,55,0.00,,,0.00,WUHU216DAVISWMX,2013-02-04 17:05:00,
2013-02-04 12:10:00,27.6,13.5,29.81,NNW,338,8.0,10.0,55,0.00,,,0.00,WUHU216DAVISWMX,2013-02-04 17:10:00,
2013-02-04 12:15:00,27.7,12.3,29.81,WNW,285,9.0,10.0,52,0.00,,,0.00,WUHU216DAVISWMX,2013-02-04 17:15:00,
2013-02-04 12:20:00,28.1,12.7,29.81,NNW,348,6.0,13.0,52,0.00,,,0.00,WUHU216DAVISWMX,2013-02-04 17:20:00,
2013-02-04 12:25:00,28.2,13.7,29.80,NW,308,9.0,13.0,54,0.00,,,0.00,WUHU216DAVISWMX,2013-02-04 17:25:00,
2013-02-04 12:30:00,28.5,13.5,29.81,NNW,332,5.0,14.0,53,0.00,,,0.00,WUHU216DAVISWMX,2013-02-04 17:30:00,
2013-02-04 12:35:00,28.4,13.0,29.81,WNW,293,3.0,14.0,52,0.00,,,0.00,WUHU216DAVISWMX,2013-02-04 17:35:00,
2013-02-04 12:40:00,28.8,14.2,29.81,WSW,255,5.0,14.0,54,0.00,,,0.00,WUHU216DAVISWMX,2013-02-04 17:40:00,
2013-02-04 12:45:00,29.1,13.6,29.80,WNW,288,6.0,14.0,52,0.00,,,0.00,WUHU216DAVISWMX,2013-02-04 17:45:00,
2013-02-04 12:50:00,29.6,15.0,29.81,SW,232,7.0,12.0,54,0.00,,,0.00,WUHU216DAVISWMX,2013-02-04 17:50:00,
2013-02-04 12:55:00,29.6,14.1,29.81,West,281,5.0,14.0,52,0.00,,,0.00,WUHU216DAVISWMX,2013-02-04 17:55:00,
2013-02-04 13:00:00,29.4,13.9,29.81,West,272,9.0,14.0,52,0.00,,,0.00,WUHU216DAVISWMX,2013-02-04 18:00:00,
2013-02-04 13:05:00,29.1,13.6,29.81,WNW,282,3.0,13.0,52,0.00,,,0.00,WUHU216DAVISWMX,2013-02-04 18:05:00,
2013-02-04 13:10:00,28.8,13.8,29.81,WNW,296,3.0,12.0,53,0.00,,,0.00,WUHU216DAVISWMX,2013-02-04 18:10:00,
2013-02-04 13:15:00,28.7,13.2,29.81,WNW,299,6.0,9.0,52,0.00,,,0.00,WUHU216DAVISWMX,2013-02-04 18:15:00,
2013-02-04 13:20:00,28.7,13.2,29.81,SW,235,2.0,9.0,52,0.00,,,0.00,WUHU216DAVISWMX,2013-02-04 18:20:00,
2013-02-04 13:25:00,28.9,13.4,29.81,NNW,343,7.0,9.0,52,0.00,,,0.00,WUHU216DAVISWMX,2013-02-04 18:25:00,
2013-02-04 13:30:00,28.6,11.3,29.81,NNW,332,5.0,10.0,48,0.00,,,0.00,WUHU216DAVISWMX,2013-02-04 18:30:00,
2013-02-04 13:36:00,28.8,12.0,29.81,NNW,331,3.0,10.0,49,0.00,,,0.00,WUHU216DAVISWMX,2013-02-04 18:36:00,
2013-02-04 13:41:00,29.1,12.7,29.81,West,269,6.0,9.0,50,0.00,,,0.00,WUHU216DAVISWMX,2013-02-04 18:41:00,
2013-02-04 13:46:00,29.3,11.9,29.81,NNW,336,4.0,17.0,48,0.00,,,0.00,WUHU216DAVISWMX,2013-02-04 18:46:00,
2013-02-04 13:51:00,29.1,11.7,29.81,NNE,30,4.0,17.0,48,0.00,,,0.00,WUHU216DAVISWMX,2013-02-04 18:51:00,
2013-02-04 13:56:00,28.4,11.6,29.81,NNW,331,2.0,14.0,49,0.00,,,0.00,WUHU216DAVISWMX,2013-02-04 18:56:00,
2013-02-04 14:01:00,28.0,11.2,29.81,WNW,289,11.0,12.0,49,0.00,,,0.00,WUHU216DAVISWMX,2013-02-04 19:01:00,
2013-02-04 14:06:00,27.8,11.0,29.81,NW,309,7.0,11.0,49,0.00,,,0.00,WUHU216DAVISWMX,2013-02-04 19:06:00,
2013-02-04 14:11:00,27.7,11.4,29.81,WSW,251,3.0,10.0,50,0.00,,,0.00,WUHU216DAVISWMX,2013-02-04 19:11:00,
2013-02-04 14:16:00,28.0,11.7,29.81,NNW,334,3.0,9.0,50,0.00,,,0.00,WUHU216DAVISWMX,2013-02-04 19:16:00,
2013-02-04 14:21:00,28.3,12.0,29.81,NNW,342,3.0,8.0,50,0.00,,,0.00,WUHU216DAVISWMX,2013-02-04 19:21:00,
2013-02-04 14:26:00,28.9,12.0,29.82,West,269,4.0,8.0,49,0.00,,,0.00,WUHU216DAVISWMX,2013-02-04 19:26:00,
2013-02-04 14:31:00,29.0,11.7,29.82,NNW,345,9.0,14.0,48,0.00,,,0.00,WUHU216DAVISWMX,2013-02-04 19:31:00,
2013-02-04 14:36:00,28.5,10.7,29.82,West,267,8.0,14.0,47,0.00,,,0.00,WUHU216DAVISWMX,2013-02-04 19:36:00,
2013-02-04 14:41:00,28.0,11.7,29.82,WSW,248,4.0,13.0,50,0.00,,,0.00,WUHU216DAVISWMX,2013-02-04 19:41:00,
2013-02-04 14:46:00,27.9,11.1,29.82,NW,305,3.0,13.0,49,0.00,,,0.00,WUHU216DAVISWMX,2013-02-04 19:46:00,
2013-02-04 14:51:00,28.0,11.7,29.82,West,260,4.0,12.0,50,0.00,,,0.00,WUHU216DAVISWMX,2013-02-04 19:51:00,
2013-02-04 14:56:00,28.1,11.8,29.83,NNW,333,4.0,12.0,50,0.00,,,0.00,WUHU216DAVISWMX,2013-02-04 19:56:00,
2013-02-04 15:01:00,28.1,10.8,29.83,WNW,291,2.0,9.0,48,0.00,,,0.00,WUHU216DAVISWMX,2013-02-04 20:01:00,
2013-02-04 15:06:00,27.9,10.6,29.83,NW,318,5.0,13.0,48,0.00,,,0.00,WUHU216DAVISWMX,2013-02-04 20:06:00,
2013-02-04 15:11:00,27.8,10.1,29.83,WSW,257,16.0,16.0,47,0.00,,,0.00,WUHU216DAVISWMX,2013-02-04 20:11:00,
2013-02-04 15:16:00,27.6,9.9,29.83,NW,324,3.0,16.0,47,0.00,,,0.00,WUHU216DAVISWMX,2013-02-04 20:16:00,
2013-02-04 15:21:00,27.6,10.4,29.83,WSW,257,11.0,11.0,48,0.00,,,0.00,WUHU216DAVISWMX,2013-02-04 20:21:00,
2013-02-04 15:26:00,27.7,10.5,29.84,WNW,298,2.0,11.0,48,0.00,,,0.00,WUHU216DAVISWMX,2013-02-04 20:26:00,
2013-02-04 15:31:00,27.6,9.4,29.83,WNW,293,3.0,13.0,46,0.00,,,0.00,WUHU216DAVISWMX,2013-02-04 20:31:00,
2013-02-04 15:36:00,27.5,9.3,29.83,NW,324,3.0,14.0,46,0.00,,,0.00,WUHU216DAVISWMX,2013-02-04 20:36:00,
2013-02-04 15:41:00,27.4,9.2,29.83,WNW,298,8.0,16.0,46,0.00,,,0.00,WUHU216DAVISWMX,2013-02-04 20:41:00,
2013-02-04 15:46:00,27.4,9.7,29.83,NW,305,4.0,16.0,47,0.00,,,0.00,WUHU216DAVISWMX,2013-02-04 20:46:00,
2013-02-04 15:51:00,27.5,10.3,29.83,West,278,6.0,9.0,48,0.00,,,0.00,WUHU216DAVISWMX,2013-02-04 20:51:00,
2013-02-04 15:56:00,27.5,10.7,29.83,WNW,294,3.0,12.0,49,0.00,,,0.00,WUHU216DAVISWMX,2013-02-04 20:56:00,
2013-02-04 16:01:00,27.4,10.7,29.83,WNW,303,8.0,12.0,49,0.00,,,0.00,WUHU216DAVISWMX,2013-02-04 21:01:00,
2013-02-04 16:06:00,27.2,10.5,29.84,West,274,2.0,11.0,49,0.00,,,0.00,WUHU216DAVISWMX,2013-02-04 21:06:00,
2013-02-04 16:11:00,27.1,11.3,29.84,NW,306,7.0,11.0,51,0.00,,,0.00,WUHU216DAVISWMX,2013-02-04 21:11:00,
2013-02-04 16:16:00,27.1,10.8,29.84,WNW,293,5.0,9.0,50,0.00,,,0.00,WUHU216DAVISWMX,2013-02-04 21:16:00,
2013-02-04 16:21:00,26.9,10.7,29.84,NNW,334,2.0,10.0,50,0.00,,,0.00,WUHU216DAVISWMX,2013-02-04 21:21:00,
2013-02-04 16:26:00,26.7,10.9,29.84,WSW,252,8.0,10.0,51,0.00,,,0.00,WUHU216DAVISWMX,2013-02-04 21:26:00,
2013-02-04 16:31:00,26.4,10.7,29.84,West,276,6.0,8.0,51,0.00,,,0.00,WUHU216DAVISWMX,2013-02-04 21:31:00,
2013-02-04 16:36:00,26.3,10.6,29.84,West,268,3.0,11.0,51,0.00,,,0.00,WUHU216DAVISWMX,2013-02-04 21:36:00,
2013-02-04 16:41:00,26.1,10.8,29.84,NNW,332,4.0,11.0,52,0.00,,,0.00,WUHU216DAVISWMX,2013-02-04 21:41:00,
2013-02-04 16:46:00,25.9,10.6,29.84,NW,319,1.0,9.0,52,0.00,,,0.00,WUHU216DAVISWMX,2013-02-04 21:46:00,
2013-02-04 16:51:00,25.8,10.5,29.84,WNW,294,2.0,6.0,52,0.00,,,0.00,WUHU216DAVISWMX,2013-02-04 21:51:00,
2013-02-04 16:56:00,25.7,10.9,29.85,NW,317,7.0,9.0,53,0.00,,,0.00,WUHU216DAVISWMX,2013-02-04 21:56:00,
2013-02-04 17:01:00,25.4,10.6,29.85,West,266,10.0,10.0,53,0.00,,,0.00,WUHU216DAVISWMX,2013-02-04 22:01:00,
2013-02-04 17:06:00,25.3,10.5,29.85,NNW,336,5.0,10.0,53,0.00,,,0.00,WUHU216DAVISWMX,2013-02-04 22:06:00,
2013-02-04 17:11:00,25.2,10.4,29.85,WNW,291,2.0,7.0,53,0.00,,,0.00,WUHU216DAVISWMX,2013-02-04 22:11:00,
2013-02-04 17:16:00,25.0,9.8,29.85,NNW,342,6.0,6.0,52,0.00,,,0.00,WUHU216DAVISWMX,2013-02-04 22:16:00,
2013-02-04 17:21:00,24.8,9.6,29.85,WNW,285,5.0,6.0,52,0.00,,,0.00,WUHU216DAVISWMX,2013-02-04 22:21:00,
2013-02-04 17:26:00,24.7,10.4,29.86,NW,308,3.0,6.0,54,0.00,,,0.00,WUHU216DAVISWMX,2013-02-04 22:26:00,
2013-02-04 17:31:00,24.6,10.3,29.86,WNW,292,3.0,6.0,54,0.00,,,0.00,WUHU216DAVISWMX,2013-02-04 22:31:00,
2013-02-04 17:36:00,24.5,10.2,29.86,WNW,296,4.0,9.0,54,0.00,,,0.00,WUHU216DAVISWMX,2013-02-04 22:36:00,
2013-02-04 17:41:00,24.3,10.4,29.87,WNW,291,5.0,9.0,55,0.00,,,0.00,WUHU216DAVISWMX,2013-02-04 22:41:00,
2013-02-04 17:46:00,24.2,10.8,29.87,WSW,258,3.0,8.0,56,0.00,,,0.00,WUHU216DAVISWMX,2013-02-04 22:46:00,
2013-02-04 17:51:00,24.1,10.2,29.87,NW,310,3.0,8.0,55,0.00,,,0.00,WUHU216DAVISWMX,2013-02-04 22:51:00,
2013-02-04 17:56:00,24.1,10.7,29.87,NW,326,2.0,7.0,56,0.00,,,0.00,WUHU216DAVISWMX,2013-02-04 22:56:00,
2013-02-04 18:01:00,24.0,10.6,29.87,WNW,295,2.0,5.0,56,0.00,,,0.00,WUHU216DAVISWMX,2013-02-04 23:01:00,
2013-02-04 18:06:00,23.9,10.1,29.88,NW,323,1.0,4.0,55,0.00,,,0.00,WUHU216DAVISWMX,2013-02-04 23:06:00,
2013-02-04 18:11:00,23.8,10.4,29.88,NNW,332,3.0,4.0,56,0.00,,,0.00,WUHU216DAVISWMX,2013-02-04 23:11:00,
2013-02-04 18:16:00,23.7,9.9,29.87,NW,325,2.0,4.0,55,0.00,,,0.00,WUHU216DAVISWMX,2013-02-04 23:16:00,
2013-02-04 18:21:00,23.6,10.2,29.88,NW,325,1.0,5.0,56,0.00,,,0.00,WUHU216DAVISWMX,2013-02-04 23:21:00,
2013-02-04 18:26:00,23.6,10.2,29.88,WNW,295,1.0,5.0,56,0.00,,,0.00,WUHU216DAVISWMX,2013-02-04 23:26:00,
2013-02-04 18:31:00,23.5,10.1,29.88,NW,315,1.0,4.0,56,0.00,,,0.00,WUHU216DAVISWMX,2013-02-04 23:31:00,
2013-02-04 18:36:00,23.5,10.5,29.89,West,273,2.0,4.0,57,0.00,,,0.00,WUHU216DAVISWMX,2013-02-04 23:36:00,
2013-02-04 18:41:00,23.4,10.0,29.89,West,272,1.0,4.0,56,0.00,,,0.00,WUHU216DAVISWMX,2013-02-04 23:41:00,
2013-02-04 18:46:00,23.2,9.8,29.89,NNW,336,0.0,3.0,56,0.00,,,0.00,WUHU216DAVISWMX,2013-02-04 23:46:00,
2013-02-04 18:51:00,23.2,9.8,29.89,NW,317,2.0,5.0,56,0.00,,,0.00,WUHU216DAVISWMX,2013-02-04 23:51:00,
2013-02-04 18:56:00,23.1,10.1,29.89,NW,317,3.0,5.0,57,0.00,,,0.00,WUHU216DAVISWMX,2013-02-04 23:56:00,
2013-02-04 19:01:00,23.1,9.3,29.89,NW,305,2.0,6.0,55,0.00,,,0.00,WUHU216DAVISWMX,2013-02-05 00:01:00,
2013-02-04 19:06:00,22.9,9.5,29.89,WSW,253,5.0,7.0,56,0.00,,,0.00,WUHU216DAVISWMX,2013-02-05 00:06:00,
2013-02-04 19:11:00,22.8,9.0,29.90,NW,304,2.0,8.0,55,0.00,,,0.00,WUHU216DAVISWMX,2013-02-05 00:11:00,
2013-02-04 19:16:00,22.8,9.0,29.90,West,276,2.0,8.0,55,0.00,,,0.00,WUHU216DAVISWMX,2013-02-05 00:16:00,
2013-02-04 19:21:00,22.7,8.5,29.90,West,270,2.0,7.0,54,0.00,,,0.00,WUHU216DAVISWMX,2013-02-05 00:21:00,
2013-02-04 19:26:00,22.7,8.9,29.90,WNW,291,4.0,6.0,55,0.00,,,0.00,WUHU216DAVISWMX,2013-02-05 00:26:00,
2013-02-04 19:31:00,22.6,8.8,29.90,WSW,251,2.0,7.0,55,0.00,,,0.00,WUHU216DAVISWMX,2013-02-05 00:31:00,
2013-02-04 19:36:00,22.6,8.8,29.90,NW,313,2.0,7.0,55,0.00,,,0.00,WUHU216DAVISWMX,2013-02-05 00:36:00,
2013-02-04 19:41:00,22.6,8.8,29.91,WNW,290,2.0,7.0,55,0.00,,,0.00,WUHU216DAVISWMX,2013-02-05 00:41:00,
2013-02-04 19:46:00,22.5,8.8,29.91,WNW,298,5.0,5.0,55,0.00,,,0.00,WUHU216DAVISWMX,2013-02-05 00:46:00,
2013-02-04 19:51:00,22.3,9.0,29.91,NW,316,1.0,5.0,56,0.00,,,0.00,WUHU216DAVISWMX,2013-02-05 00:51:00,
2013-02-04 19:56:00,22.2,8.1,29.91,NW,313,6.0,6.0,54,0.00,,,0.00,WUHU216DAVISWMX,2013-02-05 00:56:00,
2013-02-04 20:01:00,22.2,8.5,29.91,West,259,4.0,7.0,55,0.00,,,0.00,WUHU216DAVISWMX,2013-02-05 01:01:00,
2013-02-04 20:06:00,22.1,8.4,29.91,NW,323,0.0,7.0,55,0.00,,,0.00,WUHU216DAVISWMX,2013-02-05 01:06:00,
2013-02-04 20:11:00,22.2,8.9,29.92,WNW,292,1.0,7.0,56,0.00,,,0.00,WUHU216DAVISWMX,2013-02-05 01:11:00,
2013-02-04 20:16:00,22.0,8.7,29.92,NW,314,2.0,8.0,56,0.00,,,0.00,WUHU216DAVISWMX,2013-02-05 01:16:00,
2013-02-04 20:21:00,22.0,8.7,29.92,West,280,2.0,8.0,56,0.00,,,0.00,WUHU216DAVISWMX,2013-02-05 01:21:00,
2013-02-04 20:26:00,22.0,8.7,29.92,NW,304,1.0,6.0,56,0.00,,,0.00,WUHU216DAVISWMX,2013-02-05 01:26:00,
2013-02-04 20:31:00,21.9,9.0,29.92,West,270,2.0,7.0,57,0.00,,,0.00,WUHU216DAVISWMX,2013-02-05 01:31:00,
2013-02-04 20:36:00,21.8,8.5,29.93,WNW,302,3.0,7.0,56,0.00,,,0.00,WUHU216DAVISWMX,2013-02-05 01:36:00,
2013-02-04 20:41:00,21.8,8.9,29.93,WNW,303,1.0,5.0,57,0.00,,,0.00,WUHU216DAVISWMX,2013-02-05 01:41:00,
2013-02-04 20:46:00,21.6,8.7,29.93,West,268,1.0,4.0,57,0.00,,,0.00,WUHU216DAVISWMX,2013-02-05 01:46:00,
2013-02-04 20:51:00,21.6,8.7,29.93,WSW,248,2.0,5.0,57,0.00,,,0.00,WUHU216DAVISWMX,2013-02-05 01:51:00,
2013-02-04 20:56:00,21.5,9.0,29.93,NW,313,1.0,5.0,58,0.00,,,0.00,WUHU216DAVISWMX,2013-02-05 01:56:00,
2013-02-04 21:01:00,21.6,9.1,29.93,SSW,211,2.0,4.0,58,0.00,,,0.00,WUHU216DAVISWMX,2013-02-05 02:01:00,
2013-02-04 21:06:00,21.4,8.9,29.94,WSW,251,3.0,4.0,58,0.00,,,0.00,WUHU216DAVISWMX,2013-02-05 02:06:00,
2013-02-04 21:11:00,21.2,8.7,29.94,WSW,255,3.0,4.0,58,0.00,,,0.00,WUHU216DAVISWMX,2013-02-05 02:11:00,
2013-02-04 21:16:00,21.3,9.2,29.94,WSW,246,1.0,4.0,59,0.00,,,0.00,WUHU216DAVISWMX,2013-02-05 02:16:00,
2013-02-04 21:21:00,21.1,9.0,29.94,West,265,3.0,4.0,59,0.00,,,0.00,WUHU216DAVISWMX,2013-02-05 02:21:00,
2013-02-04 21:26:00,21.1,8.6,29.94,NNW,330,3.0,4.0,58,0.00,,,0.00,WUHU216DAVISWMX,2013-02-05 02:26:00,
2013-02-04 21:31:00,21.1,8.6,29.94,NNW,330,1.0,4.0,58,0.00,,,0.00,WUHU216DAVISWMX,2013-02-05 02:31:00,
2013-02-04 21:36:00,21.0,8.9,29.94,NW,316,2.0,3.0,59,0.00,,,0.00,WUHU216DAVISWMX,2013-02-05 02:36:00,
2013-02-04 21:41:00,21.0,8.5,29.94,NW,308,2.0,4.0,58,0.00,,,0.00,WUHU216DAVISWMX,2013-02-05 02:41:00,
2013-02-04 21:46:00,21.0,8.9,29.94,WNW,294,3.0,4.0,59,0.00,,,0.00,WUHU216DAVISWMX,2013-02-05 02:46:00,
2013-02-04 21:51:00,21.0,8.9,29.94,West,272,1.0,3.0,59,0.00,,,0.00,WUHU216DAVISWMX,2013-02-05 02:51:00,
2013-02-04 21:56:00,20.9,8.8,29.94,NW,309,2.0,4.0,59,0.00,,,0.00,WUHU216DAVISWMX,2013-02-05 02:56:00,
2013-02-04 22:01:00,20.8,8.7,29.94,NW,308,0.0,4.0,59,0.00,,,0.00,WUHU216DAVISWMX,2013-02-05 03:01:00,
2013-02-04 22:06:00,20.8,8.7,29.94,NW,309,0.0,3.0,59,0.00,,,0.00,WUHU216DAVISWMX,2013-02-05 03:06:00,
2013-02-04 22:11:00,20.6,8.9,29.94,NW,309,0.0,3.0,60,0.00,,,0.00,WUHU216DAVISWMX,2013-02-05 03:11:00,
2013-02-04 22:16:00,20.6,8.9,29.94,NW,308,2.0,3.0,60,0.00,,,0.00,WUHU216DAVISWMX,2013-02-05 03:16:00,
2013-02-04 22:21:00,20.6,8.9,29.94,NW,309,2.0,5.0,60,0.00,,,0.00,WUHU216DAVISWMX,2013-02-05 03:21:00,
2013-02-04 22:26:00,20.5,8.5,29.94,NW,319,2.0,5.0,59,0.00,,,0.00,WUHU216DAVISWMX,2013-02-05 03:26:00,
2013-02-04 22:31:00,20.5,8.5,29.95,NW,319,2.0,5.0,59,0.00,,,0.00,WUHU216DAVISWMX,2013-02-05 03:31:00,
2013-02-04 22:36:00,20.3,8.3,29.95,NW,319,2.0,4.0,59,0.00,,,0.00,WUHU216DAVISWMX,2013-02-05 03:36:00,
2013-02-04 22:42:00,20.4,8.4,29.95,NW,319,1.0,2.0,59,0.00,,,0.00,WUHU216DAVISWMX,2013-02-05 03:42:00,
2013-02-04 22:47:00,20.3,8.7,29.95,WSW,246,2.0,3.0,60,0.00,,,0.00,WUHU216DAVISWMX,2013-02-05 03:47:00,
2013-02-04 22:52:00,20.1,8.1,29.95,West,266,1.0,5.0,59,0.00,,,0.00,WUHU216DAVISWMX,2013-02-05 03:52:00,
2013-02-04 22:57:00,20.0,8.4,29.96,SW,227,0.0,5.0,60,0.00,,,0.00,WUHU216DAVISWMX,2013-02-05 03:57:00,
2013-02-04 23:02:00,20.0,8.4,29.96,West,268,1.0,4.0,60,0.00,,,0.00,WUHU216DAVISWMX,2013-02-05 04:02:00,
2013-02-04 23:07:00,20.0,8.4,29.96,NNW,328,1.0,4.0,60,0.00,,,0.00,WUHU216DAVISWMX,2013-02-05 04:07:00,
2013-02-04 23:12:00,19.8,8.2,29.96,WNW,293,2.0,3.0,60,0.00,,,0.00,WUHU216DAVISWMX,2013-02-05 04:12:00,
2013-02-04 23:17:00,19.8,7.8,29.96,West,259,1.0,3.0,59,0.00,,,0.00,WUHU216DAVISWMX,2013-02-05 04:17:00,
2013-02-04 23:22:00,19.8,8.6,29.96,West,261,2.0,3.0,61,0.00,,,0.00,WUHU216DAVISWMX,2013-02-05 04:22:00,
2013-02-04 23:27:00,19.7,8.5,29.97,West,270,2.0,4.0,61,0.00,,,0.00,WUHU216DAVISWMX,2013-02-05 04:27:00,
2013-02-04 23:32:00,19.6,8.4,29.97,WSW,251,2.0,4.0,61,0.00,,,0.00,WUHU216DAVISWMX,2013-02-05 04:32:00,
2013-02-04 23:37:00,19.7,8.5,29.97,WSW,251,1.0,3.0,61,0.00,,,0.00,WUHU216DAVISWMX,2013-02-05 04:37:00,
2013-02-04 23:42:00,19.6,8.7,29.97,WSW,251,2.0,3.0,62,0.00,,,0.00,WUHU216DAVISWMX,2013-02-05 04:42:00,
2013-02-04 23:47:00,19.6,8.7,29.97,WSW,246,1.0,4.0,62,0.00,,,0.00,WUHU216DAVISWMX,2013-02-05 04:47:00,
2013-02-04 23:52:00,19.6,8.7,29.97,WSW,246,1.0,4.0,62,0.00,,,0.00,WUHU216DAVISWMX,2013-02-05 04:52:00,
2013-02-04 23:57:00,19.5,8.3,29.98,West,262,1.0,4.0,61,0.00,,,0.00,WUHU216DAVISWMX,2013-02-05 04:57:00,